STARLINK-38063, 69979

Orbit data source: Space-Track

STARLINK-38063, 69979 is a payload satellite owned by SpaceX/Seattle (US) in SSO that was launched on Sat, 11 Jul 2026 UTC via an FALCON 9 launch vehicle from the Air Force Western Test Range (AFWTR). Payload-class satellites include a variety of spacecraft equipped with specific instruments for various scientific and technological missions. These include communications satellites like Starlink; space stations such as the ISS; scientific satellites like the Hubble; Earth observation satellites from companies like Planet Labs, Umbra, and HawkEye 360; GPS; miniature CubeSats for education and research; and military/defense satellites.

Loading next visibility...
Identifier
69979, 2026-159E
Orbit
SSO
Country
Flag of USUS
Related business
Manufacturer
SpaceX/Seattle
Mission
Operational spacecraft
Bus & Motor
STARLINK V2MO, Unknown motor
Mass
575 kg wet, ~530 kg dry
Launch date (UTC)
2026-07-11 (2 months ago)
Launch vehicle
FALCON 9
Launch site
Air Force Western Test Range (AFWTR)
Object type
Payload
Rocket body
Debris
Shape & HBR
BOX + PAN, 17.7 m
Radar Cross Section
Large (>1 m²)

Expand to show TLE details & history
Last TLE update: 9 hours ago

TLE from 9 hours ago
0 STARLINK-38063
1 69979U 26159E   26264.58335648 -.02695161  00000-0 -69396-1 0  9991
2 69979  97.2853 106.4298 0002454  73.5177 359.3351 15.43194205  5908
Epoch: 2026-09-21T14:00Z
TLE epoch observation values (Epoch: 2026-09-21T14:00:01.999Z)
Latitude
71.4881°
Longitude
-126.35458°
Altitude
447.368 km
Speed
7.651 km/s
True Right ascension
05h 36m 27s
True Declination
71° 22' 46"
Sunlit
Object was in daylight at epoch
Visualization orbit readout
Latitude
Unknown
Longitude
Unknown
Altitude
Unknown
Speed
Unknown
Apparent Right ascension
Unknown
Apparent Declination
Unknown
Sunlit
N/A
Visualization observer readout
Local Sidereal Time
16:22:07
Azimuth
Unknown
Elevation
Unknown
Doppler factor
Unknown
Orbital elements
Apogee altitude
435.291 km
Perigee altitude
431.947 km
Semi-major axis
6,811.756 km
Eccentricity
0.00025
Inclination
97.2853°
RAAN
106.4298°
Arg. of periapsis
73.5177°
True anomaly
359.33477°
Mean anomaly
359.3351°
Eccentric anomaly
359.33494°
Mean motion
3.8606 °/min
Orbital period
93.25 mins
BSTAR
-0.069396
Loading maneuver chart data...
Computing Atmospheric mass density...
Loading historical data...
Loading historical data...
Loading historical data...
Loading historical data...
Loading historical data...
Loading historical data...
Loading historical data...

Documentation

Showing up to 5 results
|